Weather History for CYYG - April, 2014

Change the Weather History Date:

Sunday, April 20, 2014

  Actual Average Record
Temperature  
Mean Temperature 36 °F -  
Max Temperature 42 °F 52 °F 64 °F (2012)
Min Temperature 29 °F 36 °F 21 °F (2009)
Degree Days  
Heating Degree Days 30    
Moisture  
Dew Point 23 °F    
Average Humidity 61    
Maximum Humidity 93    
Minimum Humidity 29    
Precipitation  
Precipitation 0.00 in 0.12 in - ()
Sea Level Pressure  
Sea Level Pressure 30.33 in    
Wind  
Wind Speed 10 mph ()    
Max Wind Speed 16 mph    
Max Gust Speed 26 mph    
Visibility 14.6 miles    
Events      
Averages and records for this station are not official NWS values.
T = Trace of Precipitation, MM = Missing Value Source: Averaged Metar Reports

Daily Weather History Graph

Daily Weather History Graph

Search for Another Location

Airport or City:

Trip Planner

Search our weather history database for the weather conditions in past years. The results will help you decide how hot, cold, wet, or windy it might be!

Date:

Astronomy

Apr. 20, 2014 Rise Set
Actual Time 6:17 AM ADT 8:06 PM ADT
Civil Twilight 5:45 AM ADT 8:38 PM ADT
Nautical Twilight 5:06 AM ADT 9:18 PM ADT
Astronomical Twilight 4:23 AM ADT 10:01 PM ADT
Moon 12:49 AM ADT (4/20) 10:25 AM ADT (4/20)
Length of Visible Light 14h 53m
Length of Day
13h 49m
Waning Gibbous, 69% of the Moon is Illuminated
Apr 20
Waning Gibbous
Apr 22
Last Quarter
Apr 29
New
May 7
First Quarter
May 14
Full

Hourly Weather History & Observations

Time (ADT) Temp. Windchill Dew Point Humidity Pressure Visibility Wind Dir Wind Speed Gust Speed Precip Events Conditions
12:00 AM 30.2 °F 20.2 °F 28.4 °F 93% 30.15 in 10.0 mi NNW 12.7 mph 25.3 mph N/A   Overcast
1:00 AM 30.2 °F 21.3 °F 28.4 °F 93% 30.17 in 10.0 mi North 10.4 mph - N/A   Overcast
2:00 AM 32.0 °F 24.2 °F 30.2 °F 93% 30.20 in 15.0 mi North 9.2 mph 18.4 mph N/A   Overcast
3:00 AM 32 °F - 30 °F 87% 30.22 in 15 mi North 11.5 mph - -   Partly Cloudy
3:00 AM 32.0 °F 23.6 °F 30.2 °F 93% 30.22 in 15.0 mi North 10.4 mph 18.4 mph N/A   Overcast
4:00 AM 32.0 °F 24.2 °F 30.2 °F 93% 30.23 in 15.0 mi NNW 9.2 mph - N/A   Scattered Clouds
6:00 AM 33.8 °F 24.8 °F 28.4 °F 81% 30.29 in 15.0 mi NNW 12.7 mph 24.2 mph N/A   Overcast
7:00 AM 33.8 °F 24.8 °F 26.6 °F 75% 30.33 in 15.0 mi NNW 12.7 mph 23.0 mph N/A   Mostly Cloudy
8:00 AM 32.0 °F 21.6 °F 24.8 °F 75% 30.35 in 15.0 mi NNW 15.0 mph 24.2 mph N/A   Mostly Cloudy
9:00 AM 34 °F - 23 °F 52% 30.38 in 15 mi NNW 15.0 mph - -   Mostly Cloudy
9:00 AM 33.8 °F 24.3 °F 23.0 °F 65% 30.38 in 15.0 mi NNW 13.8 mph 26.5 mph N/A   Mostly Cloudy
10:00 AM 33.8 °F 23.5 °F 21.2 °F 60% 30.40 in 15.0 mi North 16.1 mph 21.9 mph N/A   Partly Cloudy
11:00 AM 35.6 °F 26.6 °F 21.2 °F 56% 30.41 in 15.0 mi North 13.8 mph 24.2 mph N/A   Partly Cloudy
12:00 PM 35.6 °F 26.6 °F 19.4 °F 52% 30.43 in 15.0 mi NW 13.8 mph 21.9 mph N/A   Partly Cloudy
1:00 PM 35.6 °F 26.6 °F 19.4 °F 52% 30.43 in 15.0 mi NNW 13.8 mph - N/A   Scattered Clouds
2:00 PM 35.6 °F 28.0 °F 21.2 °F 56% 30.42 in 15.0 mi NNW 10.4 mph - N/A   Scattered Clouds
3:00 PM 38 °F - 21 °F 37% 30.41 in 15 mi NNW 9.2 mph - -   Scattered Clouds
3:00 PM 39.2 °F 33.6 °F 21.2 °F 49% 30.41 in 15.0 mi NW 8.1 mph - N/A   Mostly Cloudy
4:00 PM 41.0 °F 36.4 °F 21.2 °F 45% 30.39 in 15.0 mi NW 6.9 mph - N/A   Mostly Cloudy
5:00 PM 41.0 °F 35.2 °F 17.6 °F 39% 30.38 in 15.0 mi NNW 9.2 mph - N/A   Scattered Clouds
6:00 PM 42.8 °F 39.3 °F 12.2 °F 29% 30.36 in 15.0 mi NW 5.8 mph - N/A   Mostly Cloudy
7:00 PM 42.8 °F 41.1 °F 12.2 °F 29% 30.35 in 15.0 mi West 3.5 mph - N/A   Scattered Clouds
8:00 PM 41.0 °F 39.0 °F 12.2 °F 31% 30.34 in 15.0 mi SSW 3.5 mph - N/A   Scattered Clouds
8:16 PM 35.6 °F 29.9 °F 17.6 °F 48% 30.34 in 15.0 mi South 6.9 mph - N/A   Partly Cloudy
9:00 PM 36 °F - 24 °F 49% 30.35 in 15 mi SSW 8.1 mph - -   Clear
9:00 PM 35.6 °F 29.2 °F 23.0 °F 60% 30.35 in 15.0 mi SSW 8.1 mph - N/A   Partly Cloudy
10:00 PM 33.8 °F 27.0 °F 23.0 °F 65% 30.34 in 15.0 mi SSW 8.1 mph - N/A   Mostly Cloudy
11:00 PM 33.8 °F 27.7 °F 21.2 °F 60% 30.33 in 15.0 mi SSW 6.9 mph - N/A   Scattered Clouds